Time,TemperatureF,DewpointF,PressureIn,WindDirection,WindDirectionDegrees,WindSpeedMPH,WindSpeedGustMPH,Humidity,HourlyPrecipIn,Conditions,Clouds,dailyrainin,SoftwareType,DateUTC
2013-06-14 00:01:00,76.6,66.6,30.05,ENE,78,15.0,18.0,71,0.00,,,0.00,meteohub,2013-06-14 05:01:00,
2013-06-14 00:06:00,76.5,66.4,30.05,ENE,65,13.0,20.0,71,0.00,,,0.00,meteohub,2013-06-14 05:06:00,
2013-06-14 00:11:00,76.3,66.6,30.05,SE,127,11.0,22.0,72,0.00,,,0.00,meteohub,2013-06-14 05:11:00,
2013-06-14 00:16:00,76.3,66.6,30.06,SE,127,18.0,22.0,72,0.00,,,0.00,meteohub,2013-06-14 05:16:00,
2013-06-14 00:21:00,76.3,66.6,30.05,ESE,113,6.0,22.0,72,0.00,,,0.00,meteohub,2013-06-14 05:21:00,
2013-06-14 00:26:00,76.1,66.4,30.05,SE,134,6.0,19.0,72,0.00,,,0.00,meteohub,2013-06-14 05:26:00,
2013-06-14 00:32:00,75.9,66.2,30.05,ESE,116,11.0,18.0,72,0.00,,,0.00,meteohub,2013-06-14 05:32:00,
2013-06-14 00:37:00,75.9,66.2,30.05,ESE,119,12.0,18.0,72,0.00,,,0.00,meteohub,2013-06-14 05:37:00,
2013-06-14 00:42:00,75.7,66.4,30.05,East,81,12.0,18.0,73,0.00,,,0.00,meteohub,2013-06-14 05:42:00,
2013-06-14 00:47:00,75.7,66.4,30.05,ESE,102,9.0,18.0,73,0.00,,,0.00,meteohub,2013-06-14 05:47:00,
2013-06-14 00:52:00,75.7,66.4,30.05,ESE,118,8.0,18.0,73,0.00,,,0.00,meteohub,2013-06-14 05:52:00,
2013-06-14 00:56:00,75.7,66.4,30.05,SSE,152,7.0,14.0,73,0.00,,,0.00,meteohub,2013-06-14 05:56:00,
2013-06-14 01:02:00,75.6,66.4,30.05,SE,143,4.0,15.0,73,0.00,,,0.00,meteohub,2013-06-14 06:02:00,
2013-06-14 01:07:00,75.6,66.4,30.06,ESE,113,12.0,15.0,73,0.00,,,0.00,meteohub,2013-06-14 06:07:00,
2013-06-14 01:12:00,75.6,66.4,30.06,ESE,109,8.0,15.0,73,0.00,,,0.00,meteohub,2013-06-14 06:12:00,
2013-06-14 01:17:00,75.4,66.6,30.06,East,96,8.0,18.0,74,0.00,,,0.00,meteohub,2013-06-14 06:17:00,
2013-06-14 01:22:00,75.4,66.6,30.06,ESE,122,8.0,18.0,74,0.00,,,0.00,meteohub,2013-06-14 06:22:00,
2013-06-14 01:27:00,75.4,66.6,30.06,ESE,116,10.0,14.0,74,0.00,,,0.00,meteohub,2013-06-14 06:27:00,
2013-06-14 01:32:00,75.4,66.6,30.06,SE,132,7.0,13.0,74,0.00,,,0.00,meteohub,2013-06-14 06:32:00,
2013-06-14 01:37:00,75.4,66.6,30.06,SE,127,8.0,13.0,74,0.00,,,0.00,meteohub,2013-06-14 06:37:00,
2013-06-14 01:42:00,75.4,66.6,30.06,ESE,109,4.0,13.0,74,0.00,,,0.00,meteohub,2013-06-14 06:42:00,
2013-06-14 01:47:00,75.4,66.6,30.05,SE,127,6.0,12.0,74,0.00,,,0.00,meteohub,2013-06-14 06:47:00,
2013-06-14 01:52:00,75.4,66.6,30.05,ESE,108,8.0,12.0,74,0.00,,,0.00,meteohub,2013-06-14 06:52:00,
2013-06-14 01:57:00,75.4,66.6,30.05,ESE,113,12.0,14.0,74,0.00,,,0.00,meteohub,2013-06-14 06:57:00,
2013-06-14 02:02:00,75.4,66.6,30.06,SE,127,5.0,14.0,74,0.00,,,0.00,meteohub,2013-06-14 07:02:00,
2013-06-14 02:07:00,75.4,66.6,30.06,ESE,121,9.0,14.0,74,0.00,,,0.00,meteohub,2013-06-14 07:07:00,
2013-06-14 02:12:00,75.2,66.4,30.05,SSE,149,6.0,13.0,74,0.00,,,0.00,meteohub,2013-06-14 07:12:00,
2013-06-14 02:17:00,75.0,66.2,30.05,ESE,118,5.0,12.0,74,0.00,,,0.00,meteohub,2013-06-14 07:17:00,
2013-06-14 02:22:00,75.0,66.2,30.06,ESE,118,4.0,12.0,74,0.00,,,0.00,meteohub,2013-06-14 07:22:00,
2013-06-14 02:26:00,75.0,66.2,30.05,SE,124,6.0,11.0,74,0.00,,,0.00,meteohub,2013-06-14 07:26:00,
2013-06-14 02:32:00,75.0,66.2,30.05,SE,140,7.0,10.0,74,0.00,,,0.00,meteohub,2013-06-14 07:32:00,
2013-06-14 02:37:00,74.8,66.4,30.05,ESE,110,6.0,11.0,75,0.00,,,0.00,meteohub,2013-06-14 07:37:00,
2013-06-14 02:42:00,74.8,66.4,30.05,ESE,122,7.0,11.0,75,0.00,,,0.00,meteohub,2013-06-14 07:42:00,
2013-06-14 02:47:00,74.8,66.4,30.05,ESE,121,6.0,11.0,75,0.00,,,0.00,meteohub,2013-06-14 07:47:00,
2013-06-14 02:52:00,74.7,66.2,30.05,SE,124,7.0,10.0,75,0.00,,,0.00,meteohub,2013-06-14 07:52:00,
2013-06-14 02:57:00,74.7,66.2,30.05,East,100,8.0,12.0,75,0.00,,,0.00,meteohub,2013-06-14 07:57:00,
2013-06-14 03:02:00,74.5,66.0,30.05,ESE,121,4.0,12.0,75,0.00,,,0.00,meteohub,2013-06-14 08:02:00,
2013-06-14 03:07:00,74.5,66.4,30.04,ESE,109,7.0,11.0,76,0.00,,,0.00,meteohub,2013-06-14 08:07:00,
2013-06-14 03:12:00,74.5,66.4,30.04,ESE,110,4.0,10.0,76,0.00,,,0.00,meteohub,2013-06-14 08:12:00,
2013-06-14 03:17:00,74.3,66.2,30.04,SE,124,5.0,10.0,76,0.00,,,0.00,meteohub,2013-06-14 08:17:00,
2013-06-14 03:22:00,74.1,66.0,30.04,ESE,110,7.0,10.0,76,0.00,,,0.00,meteohub,2013-06-14 08:22:00,
2013-06-14 03:27:00,73.9,66.2,30.04,East,100,4.0,10.0,77,0.00,,,0.00,meteohub,2013-06-14 08:27:00,
2013-06-14 03:32:00,73.8,66.0,30.03,East,100,5.0,9.0,77,0.00,,,0.00,meteohub,2013-06-14 08:32:00,
2013-06-14 03:37:00,73.8,66.0,30.03,ESE,108,9.0,10.0,77,0.00,,,0.00,meteohub,2013-06-14 08:37:00,
2013-06-14 03:42:00,73.6,66.4,30.04,East,93,4.0,10.0,78,0.00,,,0.00,meteohub,2013-06-14 08:42:00,
2013-06-14 03:47:00,73.4,66.2,30.03,ESE,111,6.0,9.0,78,0.00,,,0.00,meteohub,2013-06-14 08:47:00,
2013-06-14 03:52:00,73.2,66.0,30.03,ESE,109,7.0,11.0,78,0.00,,,0.00,meteohub,2013-06-14 08:52:00,
2013-06-14 03:57:00,73.2,66.0,30.03,East,96,3.0,11.0,78,0.00,,,0.00,meteohub,2013-06-14 08:57:00,
2013-06-14 04:02:00,73.2,66.0,30.03,ESE,117,4.0,11.0,78,0.00,,,0.00,meteohub,2013-06-14 09:02:00,
2013-06-14 04:07:00,73.0,66.2,30.03,East,81,4.0,9.0,79,0.00,,,0.00,meteohub,2013-06-14 09:07:00,
2013-06-14 04:12:00,73.0,66.2,30.03,East,88,3.0,8.0,79,0.00,,,0.00,meteohub,2013-06-14 09:12:00,
2013-06-14 04:17:00,73.0,66.2,30.02,SE,124,5.0,8.0,79,0.00,,,0.00,meteohub,2013-06-14 09:17:00,
2013-06-14 04:22:00,72.9,66.0,30.03,ESE,119,7.0,8.0,79,0.00,,,0.00,meteohub,2013-06-14 09:22:00,
2013-06-14 04:27:00,72.9,66.0,30.03,ESE,112,6.0,10.0,79,0.00,,,0.00,meteohub,2013-06-14 09:27:00,
2013-06-14 04:32:00,72.9,66.0,30.03,ESE,120,4.0,10.0,79,0.00,,,0.00,meteohub,2013-06-14 09:32:00,
2013-06-14 04:37:00,72.7,66.2,30.03,South,174,2.0,9.0,80,0.00,,,0.00,meteohub,2013-06-14 09:37:00,
2013-06-14 04:42:00,72.7,66.2,30.03,SE,124,3.0,8.0,80,0.00,,,0.00,meteohub,2013-06-14 09:42:00,
2013-06-14 04:47:00,72.7,66.2,30.03,SE,129,5.0,8.0,80,0.00,,,0.00,meteohub,2013-06-14 09:47:00,
2013-06-14 04:52:00,72.7,66.2,30.03,SE,136,3.0,8.0,80,0.00,,,0.00,meteohub,2013-06-14 09:52:00,
2013-06-14 04:57:00,72.7,66.2,30.03,SE,139,6.0,11.0,80,0.00,,,0.00,meteohub,2013-06-14 09:57:00,
2013-06-14 05:02:00,72.7,66.2,30.02,ESE,116,5.0,11.0,80,0.00,,,0.00,meteohub,2013-06-14 10:02:00,
2013-06-14 05:07:00,72.5,66.0,30.02,ESE,111,7.0,11.0,80,0.00,,,0.00,meteohub,2013-06-14 10:07:00,
2013-06-14 05:12:00,72.5,66.0,30.02,ESE,121,4.0,11.0,80,0.00,,,0.00,meteohub,2013-06-14 10:12:00,
2013-06-14 05:17:00,72.5,66.0,30.02,East,84,8.0,11.0,80,0.00,,,0.00,meteohub,2013-06-14 10:17:00,
2013-06-14 05:22:00,72.5,66.4,30.03,SSE,152,5.0,11.0,81,0.00,,,0.00,meteohub,2013-06-14 10:22:00,
2013-06-14 05:27:00,72.3,66.2,30.03,ESE,115,9.0,11.0,81,0.00,,,0.00,meteohub,2013-06-14 10:27:00,
2013-06-14 05:32:00,72.3,66.2,30.02,South,173,4.0,11.0,81,0.00,,,0.00,meteohub,2013-06-14 10:32:00,
2013-06-14 05:37:00,72.3,66.2,30.03,SE,142,3.0,10.0,81,0.00,,,0.00,meteohub,2013-06-14 10:37:00,
2013-06-14 05:42:00,72.3,66.2,30.03,ESE,118,7.0,10.0,81,0.00,,,0.00,meteohub,2013-06-14 10:42:00,
2013-06-14 05:47:00,72.3,66.6,30.03,SE,127,5.0,9.0,82,0.00,,,0.00,meteohub,2013-06-14 10:47:00,
2013-06-14 05:52:00,72.1,66.4,30.03,ESE,114,3.0,10.0,82,0.00,,,0.00,meteohub,2013-06-14 10:52:00,
2013-06-14 05:57:00,72.1,66.4,30.03,ESE,109,3.0,10.0,82,0.00,,,0.00,meteohub,2013-06-14 10:57:00,
2013-06-14 06:02:00,72.3,66.2,30.04,SSE,167,4.0,9.0,81,0.00,,,0.00,meteohub,2013-06-14 11:02:00,
2013-06-14 06:07:00,72.1,66.0,30.04,SSE,153,5.0,8.0,81,0.00,,,0.00,meteohub,2013-06-14 11:07:00,
2013-06-14 06:12:00,72.1,66.4,30.04,SE,133,3.0,8.0,82,0.00,,,0.00,meteohub,2013-06-14 11:12:00,
2013-06-14 06:17:00,72.1,66.4,30.04,SE,129,4.0,9.0,82,0.00,,,0.00,meteohub,2013-06-14 11:17:00,
2013-06-14 06:22:00,72.1,66.4,30.04,SE,146,5.0,9.0,82,0.00,,,0.00,meteohub,2013-06-14 11:22:00,
2013-06-14 06:27:00,72.1,66.4,30.04,ESE,115,3.0,9.0,82,0.00,,,0.00,meteohub,2013-06-14 11:27:00,
2013-06-14 06:32:00,72.3,66.6,30.04,ESE,103,7.0,12.0,82,0.00,,,0.00,meteohub,2013-06-14 11:32:00,
2013-06-14 06:37:00,72.3,66.6,30.04,ESE,110,6.0,13.0,82,0.00,,,0.00,meteohub,2013-06-14 11:37:00,
2013-06-14 06:42:00,72.5,66.4,30.04,ESE,121,5.0,13.0,81,0.00,,,0.00,meteohub,2013-06-14 11:42:00,
2013-06-14 06:47:00,72.7,66.6,30.04,SSE,148,4.0,13.0,81,0.00,,,0.00,meteohub,2013-06-14 11:47:00,
2013-06-14 06:52:00,72.9,66.7,30.04,SSE,153,4.0,12.0,81,0.00,,,0.00,meteohub,2013-06-14 11:52:00,
2013-06-14 06:57:00,73.0,66.9,30.04,SSE,163,5.0,12.0,81,0.00,,,0.00,meteohub,2013-06-14 11:57:00,
2013-06-14 07:02:00,73.2,66.7,30.03,SE,136,8.0,10.0,80,0.00,,,0.00,meteohub,2013-06-14 12:02:00,
2013-06-14 07:07:00,73.6,67.1,30.04,SSE,156,3.0,10.0,80,0.00,,,0.00,meteohub,2013-06-14 12:07:00,
2013-06-14 07:12:00,73.8,67.3,30.04,ESE,121,6.0,9.0,80,0.00,,,0.00,meteohub,2013-06-14 12:12:00,
2013-06-14 07:17:00,73.9,67.1,30.04,South,186,3.0,10.0,79,0.00,,,0.00,meteohub,2013-06-14 12:17:00,
2013-06-14 07:22:00,74.1,67.1,30.04,South,174,4.0,10.0,79,0.00,,,0.00,meteohub,2013-06-14 12:22:00,
2013-06-14 07:27:00,74.5,67.5,30.04,SSW,208,5.0,11.0,79,0.00,,,0.00,meteohub,2013-06-14 12:27:00,
2013-06-14 07:32:00,74.8,67.5,30.04,South,188,6.0,11.0,78,0.00,,,0.00,meteohub,2013-06-14 12:32:00,
2013-06-14 07:37:00,75.4,67.6,30.04,South,181,8.0,11.0,77,0.00,,,0.00,meteohub,2013-06-14 12:37:00,
2013-06-14 07:42:00,75.6,67.8,30.04,SSE,156,4.0,9.0,77,0.00,,,0.00,meteohub,2013-06-14 12:42:00,
2013-06-14 07:47:00,75.9,67.8,30.04,ESE,113,6.0,9.0,76,0.00,,,0.00,meteohub,2013-06-14 12:47:00,
2013-06-14 07:52:00,75.9,67.8,30.04,SSE,152,11.0,13.0,76,0.00,,,0.00,meteohub,2013-06-14 12:52:00,
2013-06-14 07:57:00,76.1,68.0,30.04,South,173,2.0,13.0,76,0.00,,,0.00,meteohub,2013-06-14 12:57:00,
2013-06-14 08:02:00,76.6,68.5,30.04,ESE,113,5.0,13.0,76,0.00,,,0.00,meteohub,2013-06-14 13:02:00,
2013-06-14 08:07:00,77.0,68.9,30.04,SSE,158,3.0,12.0,76,0.00,,,0.00,meteohub,2013-06-14 13:07:00,
2013-06-14 08:12:00,77.4,68.9,30.05,ESE,121,5.0,12.0,75,0.00,,,0.00,meteohub,2013-06-14 13:12:00,
2013-06-14 08:17:00,77.5,68.9,30.04,SE,131,3.0,10.0,75,0.00,,,0.00,meteohub,2013-06-14 13:17:00,
2013-06-14 08:22:00,77.5,68.5,30.05,SE,124,5.0,9.0,74,0.00,,,0.00,meteohub,2013-06-14 13:22:00,
2013-06-14 08:27:00,77.7,69.1,30.05,South,170,5.0,11.0,75,0.00,,,0.00,meteohub,2013-06-14 13:27:00,
2013-06-14 08:32:00,78.1,69.1,30.05,ESE,103,12.0,12.0,74,0.00,,,0.00,meteohub,2013-06-14 13:32:00,
2013-06-14 08:37:00,78.4,69.4,30.05,SE,124,7.0,13.0,74,0.00,,,0.00,meteohub,2013-06-14 13:37:00,
2013-06-14 08:42:00,78.6,69.6,30.05,ESE,114,8.0,13.0,74,0.00,,,0.00,meteohub,2013-06-14 13:42:00,
2013-06-14 08:47:00,78.8,69.4,30.04,ESE,113,7.0,13.0,73,0.00,,,0.00,meteohub,2013-06-14 13:47:00,
2013-06-14 08:52:00,78.8,69.8,30.05,SSE,149,8.0,13.0,74,0.00,,,0.00,meteohub,2013-06-14 13:52:00,
2013-06-14 08:57:00,79.2,70.2,30.04,ESE,117,10.0,15.0,74,0.00,,,0.00,meteohub,2013-06-14 13:57:00,
2013-06-14 09:02:00,79.2,70.2,30.04,SSE,162,9.0,15.0,74,0.00,,,0.00,meteohub,2013-06-14 14:02:00,
2013-06-14 09:07:00,79.5,70.2,30.04,South,183,7.0,14.0,73,0.00,,,0.00,meteohub,2013-06-14 14:07:00,
2013-06-14 09:12:00,79.9,70.5,30.05,SSE,151,6.0,14.0,73,0.00,,,0.00,meteohub,2013-06-14 14:12:00,
2013-06-14 09:17:00,80.2,70.3,30.04,SSW,210,8.0,13.0,72,0.00,,,0.00,meteohub,2013-06-14 14:17:00,
2013-06-14 09:22:00,80.8,70.9,30.05,SE,138,9.0,13.0,72,0.00,,,0.00,meteohub,2013-06-14 14:22:00,
2013-06-14 09:27:00,80.8,70.9,30.05,South,179,9.0,13.0,72,0.00,,,0.00,meteohub,2013-06-14 14:27:00,
2013-06-14 09:32:00,81.7,71.4,30.04,SE,141,5.0,12.0,71,0.00,,,0.00,meteohub,2013-06-14 14:32:00,
2013-06-14 09:37:00,82.2,71.4,30.04,SSE,153,2.0,12.0,70,0.00,,,0.00,meteohub,2013-06-14 14:37:00,
2013-06-14 09:42:00,82.6,71.4,30.04,SSE,149,5.0,13.0,69,0.00,,,0.00,meteohub,2013-06-14 14:42:00,
2013-06-14 09:47:00,82.8,71.1,30.04,SE,145,12.0,13.0,68,0.00,,,0.00,meteohub,2013-06-14 14:47:00,
2013-06-14 09:52:00,82.9,71.8,30.04,SE,143,7.0,13.0,69,0.00,,,0.00,meteohub,2013-06-14 14:52:00,
2013-06-14 09:57:00,83.7,71.6,30.04,South,183,5.0,13.0,67,0.00,,,0.00,meteohub,2013-06-14 14:57:00,
2013-06-14 10:02:00,83.8,70.9,30.04,South,187,11.0,14.0,65,0.00,,,0.00,meteohub,2013-06-14 15:02:00,
2013-06-14 10:07:00,84.0,70.5,30.03,SSW,204,6.0,14.0,64,0.00,,,0.00,meteohub,2013-06-14 15:07:00,
2013-06-14 10:12:00,84.6,71.1,30.03,South,190,7.0,15.0,64,0.00,,,0.00,meteohub,2013-06-14 15:12:00,
2013-06-14 10:17:00,84.7,71.2,30.03,SSE,165,2.0,15.0,64,0.00,,,0.00,meteohub,2013-06-14 15:17:00,
2013-06-14 10:22:00,85.3,71.2,30.02,SSE,152,8.0,16.0,63,0.00,,,0.00,meteohub,2013-06-14 15:22:00,
2013-06-14 10:27:00,85.6,71.6,30.02,SE,136,4.0,16.0,63,0.00,,,0.00,meteohub,2013-06-14 15:27:00,
2013-06-14 10:32:00,86.4,71.8,30.03,SW,215,3.0,14.0,62,0.00,,,0.00,meteohub,2013-06-14 15:32:00,
2013-06-14 10:37:00,86.5,71.4,30.02,SSE,150,6.0,14.0,61,0.00,,,0.00,meteohub,2013-06-14 15:37:00,
2013-06-14 10:42:00,87.1,72.0,30.02,SSE,150,9.0,14.0,61,0.00,,,0.00,meteohub,2013-06-14 15:42:00,
2013-06-14 10:47:00,87.3,72.1,30.01,SE,139,7.0,14.0,61,0.00,,,0.00,meteohub,2013-06-14 15:47:00,
2013-06-14 10:52:00,87.3,71.6,30.01,SSW,195,6.0,15.0,60,0.00,,,0.00,meteohub,2013-06-14 15:52:00,
2013-06-14 10:57:00,87.6,72.0,30.01,SW,218,6.0,18.0,60,0.00,,,0.00,meteohub,2013-06-14 15:57:00,
2013-06-14 11:02:00,88.2,71.6,30.01,WSW,242,12.0,18.0,58,0.00,,,0.00,meteohub,2013-06-14 16:02:00,
2013-06-14 11:07:00,88.3,71.2,30.01,SW,215,7.0,18.0,57,0.00,,,0.00,meteohub,2013-06-14 16:07:00,
2013-06-14 11:12:00,89.1,70.7,30.01,South,177,4.0,18.0,55,0.00,,,0.00,meteohub,2013-06-14 16:12:00,
2013-06-14 11:17:00,89.8,70.3,30.01,SSW,207,11.0,15.0,53,0.00,,,0.00,meteohub,2013-06-14 16:17:00,
2013-06-14 11:22:00,90.1,70.7,30.01,SE,124,11.0,15.0,53,0.00,,,0.00,meteohub,2013-06-14 16:22:00,
2013-06-14 11:27:00,90.5,70.5,30.01,South,191,4.0,15.0,52,0.00,,,0.00,meteohub,2013-06-14 16:27:00,
2013-06-14 11:32:00,91.0,70.3,30.01,SW,229,6.0,15.0,51,0.00,,,0.00,meteohub,2013-06-14 16:32:00,
2013-06-14 11:37:00,91.2,69.4,30.01,SSE,158,7.0,17.0,49,0.00,,,0.00,meteohub,2013-06-14 16:37:00,
2013-06-14 11:42:00,91.6,69.8,30.01,SSW,194,8.0,17.0,49,0.00,,,0.00,meteohub,2013-06-14 16:42:00,
2013-06-14 11:47:00,91.6,69.8,30.01,South,174,5.0,17.0,49,0.00,,,0.00,meteohub,2013-06-14 16:47:00,
2013-06-14 11:52:00,91.9,68.9,30.00,SSW,195,3.0,15.0,47,0.00,,,0.00,meteohub,2013-06-14 16:52:00,
2013-06-14 11:57:00,92.7,69.4,30.00,SW,225,7.0,18.0,47,0.00,,,0.00,meteohub,2013-06-14 16:57:00,
2013-06-14 12:02:00,92.5,68.7,30.00,SW,224,9.0,20.0,46,0.00,,,0.00,meteohub,2013-06-14 17:02:00,
2013-06-14 12:07:00,92.5,68.0,30.00,SW,226,15.0,20.0,45,0.00,,,0.00,meteohub,2013-06-14 17:07:00,
2013-06-14 12:12:00,92.8,68.4,30.00,SSE,159,6.0,20.0,45,0.00,,,0.00,meteohub,2013-06-14 17:12:00,
2013-06-14 12:17:00,93.0,67.8,29.99,SSW,210,4.0,19.0,44,0.00,,,0.00,meteohub,2013-06-14 17:17:00,
2013-06-14 12:22:00,93.4,68.2,29.99,SW,225,6.0,19.0,44,0.00,,,0.00,meteohub,2013-06-14 17:22:00,
2013-06-14 12:27:00,93.7,67.8,29.99,SSW,208,9.0,19.0,43,0.00,,,0.00,meteohub,2013-06-14 17:27:00,
2013-06-14 12:32:00,93.7,68.5,29.99,SSW,193,10.0,19.0,44,0.00,,,0.00,meteohub,2013-06-14 17:32:00,
2013-06-14 12:37:00,94.1,67.5,29.99,SW,222,12.0,19.0,42,0.00,,,0.00,meteohub,2013-06-14 17:37:00,
2013-06-14 12:42:00,94.5,67.8,29.99,SW,236,7.0,19.0,42,0.00,,,0.00,meteohub,2013-06-14 17:42:00,
2013-06-14 12:47:00,94.6,68.0,29.98,South,190,3.0,19.0,42,0.00,,,0.00,meteohub,2013-06-14 17:47:00,
2013-06-14 12:52:00,95.0,66.9,29.98,South,174,11.0,18.0,40,0.00,,,0.00,meteohub,2013-06-14 17:52:00,
2013-06-14 12:57:00,95.2,66.4,29.98,SSW,208,11.0,19.0,39,0.00,,,0.00,meteohub,2013-06-14 17:57:00,
2013-06-14 13:02:00,94.8,66.0,29.97,South,183,6.0,19.0,39,0.00,,,0.00,meteohub,2013-06-14 18:02:00,
2013-06-14 13:07:00,95.2,66.4,29.97,South,180,14.0,23.0,39,0.00,,,0.00,meteohub,2013-06-14 18:07:00,
2013-06-14 13:12:00,95.4,65.7,29.97,SE,146,10.0,23.0,38,0.00,,,0.00,meteohub,2013-06-14 18:12:00,
2013-06-14 13:17:00,95.4,66.6,29.97,West,262,13.0,20.0,39,0.00,,,0.00,meteohub,2013-06-14 18:17:00,
2013-06-14 13:22:00,95.5,67.3,29.97,SSE,164,8.0,21.0,40,0.00,,,0.00,meteohub,2013-06-14 18:22:00,
2013-06-14 13:27:00,96.1,66.4,29.97,SW,218,16.0,21.0,38,0.00,,,0.00,meteohub,2013-06-14 18:27:00,
2013-06-14 13:32:00,95.7,65.3,29.97,WSW,247,11.0,21.0,37,0.00,,,0.00,meteohub,2013-06-14 18:32:00,
2013-06-14 13:37:00,96.1,64.8,29.96,SSW,205,8.0,21.0,36,0.00,,,0.00,meteohub,2013-06-14 18:37:00,
2013-06-14 13:42:00,96.1,64.0,29.96,SSE,150,11.0,24.0,35,0.00,,,0.00,meteohub,2013-06-14 18:42:00,
2013-06-14 13:47:00,96.4,65.1,29.96,SW,215,10.0,24.0,36,0.00,,,0.00,meteohub,2013-06-14 18:47:00,
2013-06-14 13:52:00,96.6,64.4,29.96,SE,136,7.0,24.0,35,0.00,,,0.00,meteohub,2013-06-14 18:52:00,
2013-06-14 13:57:00,96.6,64.4,29.96,SSW,210,15.0,20.0,35,0.00,,,0.00,meteohub,2013-06-14 18:57:00,
2013-06-14 14:02:00,96.6,64.4,29.96,SW,228,12.0,24.0,35,0.00,,,0.00,meteohub,2013-06-14 19:02:00,
2013-06-14 14:07:00,96.8,63.9,29.96,SSW,200,8.0,25.0,34,0.00,,,0.00,meteohub,2013-06-14 19:07:00,
2013-06-14 14:12:00,96.4,62.6,29.95,SSE,167,9.0,25.0,33,0.00,,,0.00,meteohub,2013-06-14 19:12:00,
2013-06-14 14:17:00,96.6,62.8,29.95,South,174,13.0,25.0,33,0.00,,,0.00,meteohub,2013-06-14 19:17:00,
2013-06-14 14:22:00,97.0,64.0,29.95,SE,138,8.0,22.0,34,0.00,,,0.00,meteohub,2013-06-14 19:22:00,
2013-06-14 14:27:00,97.3,63.5,29.95,SW,232,17.0,22.0,33,0.00,,,0.00,meteohub,2013-06-14 19:27:00,
2013-06-14 14:32:00,97.7,63.7,29.95,SW,222,12.0,24.0,33,0.00,,,0.00,meteohub,2013-06-14 19:32:00,
2013-06-14 14:37:00,97.7,64.6,29.95,SSW,209,15.0,24.0,34,0.00,,,0.00,meteohub,2013-06-14 19:37:00,
2013-06-14 14:42:00,98.1,61.3,29.95,SW,216,15.0,24.0,30,0.00,,,0.00,meteohub,2013-06-14 19:42:00,
2013-06-14 14:47:00,98.1,61.3,29.94,SW,228,16.0,25.0,30,0.00,,,0.00,meteohub,2013-06-14 19:47:00,
2013-06-14 14:53:00,98.1,62.2,29.94,SW,218,13.0,26.0,31,0.00,,,0.00,meteohub,2013-06-14 19:53:00,
2013-06-14 14:58:00,98.2,61.5,29.94,SSW,200,7.0,26.0,30,0.00,,,0.00,meteohub,2013-06-14 19:58:00,
2013-06-14 15:03:00,98.2,62.4,29.94,SSW,194,4.0,26.0,31,0.00,,,0.00,meteohub,2013-06-14 20:03:00,
2013-06-14 15:08:00,98.8,61.9,29.94,SSW,203,5.0,23.0,30,0.00,,,0.00,meteohub,2013-06-14 20:08:00,
2013-06-14 15:13:00,98.4,59.7,29.94,SSW,211,14.0,23.0,28,0.00,,,0.00,meteohub,2013-06-14 20:13:00,
2013-06-14 15:18:00,98.4,60.6,29.94,SW,224,16.0,25.0,29,0.00,,,0.00,meteohub,2013-06-14 20:18:00,
2013-06-14 15:23:00,98.4,61.7,29.94,SW,224,13.0,25.0,30,0.00,,,0.00,meteohub,2013-06-14 20:23:00,
2013-06-14 15:28:00,98.4,61.7,29.93,SW,214,7.0,25.0,30,0.00,,,0.00,meteohub,2013-06-14 20:28:00,
2013-06-14 15:33:00,98.8,61.9,29.93,South,179,11.0,25.0,30,0.00,,,0.00,meteohub,2013-06-14 20:33:00,
2013-06-14 15:38:00,98.6,60.8,29.93,WSW,248,9.0,25.0,29,0.00,,,0.00,meteohub,2013-06-14 20:38:00,
2013-06-14 15:43:00,98.6,60.8,29.93,SSW,212,14.0,24.0,29,0.00,,,0.00,meteohub,2013-06-14 20:43:00,
2013-06-14 15:48:00,98.8,61.0,29.93,SW,217,12.0,24.0,29,0.00,,,0.00,meteohub,2013-06-14 20:48:00,
2013-06-14 15:53:00,98.8,61.0,29.92,SSW,195,10.0,24.0,29,0.00,,,0.00,meteohub,2013-06-14 20:53:00,
2013-06-14 15:58:00,98.8,60.1,29.92,SSW,203,9.0,25.0,28,0.00,,,0.00,meteohub,2013-06-14 20:58:00,
2013-06-14 16:03:00,98.8,59.0,29.92,SW,224,19.0,25.0,27,0.00,,,0.00,meteohub,2013-06-14 21:03:00,
2013-06-14 16:08:00,98.8,60.1,29.92,SW,236,14.0,26.0,28,0.00,,,0.00,meteohub,2013-06-14 21:08:00,
2013-06-14 16:13:00,98.6,60.8,29.92,SSW,212,19.0,26.0,29,0.00,,,0.00,meteohub,2013-06-14 21:13:00,
2013-06-14 16:18:00,98.8,61.0,29.91,SE,139,18.0,26.0,29,0.00,,,0.00,meteohub,2013-06-14 21:18:00,
2013-06-14 16:23:00,98.8,61.0,29.92,SSW,207,8.0,26.0,29,0.00,,,0.00,meteohub,2013-06-14 21:23:00,
2013-06-14 16:28:00,98.8,60.1,29.91,SW,233,18.0,26.0,28,0.00,,,0.00,meteohub,2013-06-14 21:28:00,
2013-06-14 16:33:00,98.8,59.0,29.91,SSE,148,8.0,24.0,27,0.00,,,0.00,meteohub,2013-06-14 21:33:00,
2013-06-14 16:38:00,98.4,59.7,29.91,SW,232,18.0,23.0,28,0.00,,,0.00,meteohub,2013-06-14 21:38:00,
2013-06-14 16:43:00,98.8,61.0,29.91,SW,233,13.0,22.0,29,0.00,,,0.00,meteohub,2013-06-14 21:43:00,
2013-06-14 16:48:00,98.6,59.9,29.91,WSW,242,20.0,26.0,28,0.00,,,0.00,meteohub,2013-06-14 21:48:00,
2013-06-14 16:53:00,98.4,58.6,29.91,SW,221,13.0,26.0,27,0.00,,,0.00,meteohub,2013-06-14 21:53:00,
2013-06-14 16:58:00,98.4,57.6,29.91,SSW,193,12.0,26.0,26,0.00,,,0.00,meteohub,2013-06-14 21:58:00,
2013-06-14 17:03:00,98.4,55.4,29.91,WSW,249,20.0,25.0,24,0.00,,,0.00,meteohub,2013-06-14 22:03:00,
2013-06-14 17:08:00,98.2,54.1,29.91,SW,215,4.0,29.0,23,0.00,,,0.00,meteohub,2013-06-14 22:08:00,
2013-06-14 17:13:00,98.4,58.6,29.91,SW,224,7.0,29.0,27,0.00,,,0.00,meteohub,2013-06-14 22:13:00,
2013-06-14 17:18:00,98.4,60.6,29.91,South,179,15.0,29.0,29,0.00,,,0.00,meteohub,2013-06-14 22:18:00,
2013-06-14 17:23:00,98.2,61.5,29.91,SW,219,19.0,23.0,30,0.00,,,0.00,meteohub,2013-06-14 22:23:00,
2013-06-14 17:28:00,98.1,62.2,29.91,SSE,167,4.0,22.0,31,0.00,,,0.00,meteohub,2013-06-14 22:28:00,
2013-06-14 17:33:00,98.2,61.5,29.91,SW,224,10.0,23.0,30,0.00,,,0.00,meteohub,2013-06-14 22:33:00,
2013-06-14 17:38:00,98.1,60.4,29.91,SW,214,10.0,23.0,29,0.00,,,0.00,meteohub,2013-06-14 22:38:00,
2013-06-14 17:43:00,97.5,59.9,29.90,SW,221,21.0,25.0,29,0.00,,,0.00,meteohub,2013-06-14 22:43:00,
2013-06-14 17:48:00,97.2,59.5,29.90,SE,143,7.0,26.0,29,0.00,,,0.00,meteohub,2013-06-14 22:48:00,
2013-06-14 17:53:00,96.8,59.4,29.90,South,186,13.0,26.0,29,0.00,,,0.00,meteohub,2013-06-14 22:53:00,
2013-06-14 17:58:00,96.8,60.3,29.90,SW,224,9.0,26.0,30,0.00,,,0.00,meteohub,2013-06-14 22:58:00,
2013-06-14 18:04:00,97.2,60.6,29.90,SSW,210,10.0,21.0,30,0.00,,,0.00,meteohub,2013-06-14 23:04:00,
2013-06-14 18:09:00,97.2,59.5,29.89,SW,231,13.0,17.0,29,0.00,,,0.00,meteohub,2013-06-14 23:09:00,
2013-06-14 18:14:00,97.2,60.6,29.89,SW,222,18.0,25.0,30,0.00,,,0.00,meteohub,2013-06-14 23:14:00,
2013-06-14 18:19:00,97.0,57.4,29.90,WSW,240,13.0,25.0,27,0.00,,,0.00,meteohub,2013-06-14 23:19:00,
2013-06-14 18:24:00,96.4,59.0,29.90,SSW,208,17.0,25.0,29,0.00,,,0.00,meteohub,2013-06-14 23:24:00,
2013-06-14 18:29:00,96.3,60.6,29.89,SSW,195,8.0,28.0,31,0.00,,,0.00,meteohub,2013-06-14 23:29:00,
2013-06-14 18:34:00,96.1,61.5,29.90,SSW,195,8.0,28.0,32,0.00,,,0.00,meteohub,2013-06-14 23:34:00,
2013-06-14 18:39:00,96.3,60.6,29.90,SSW,205,13.0,28.0,31,0.00,,,0.00,meteohub,2013-06-14 23:39:00,
2013-06-14 18:44:00,96.4,60.8,29.90,SSW,205,7.0,24.0,31,0.00,,,0.00,meteohub,2013-06-14 23:44:00,
2013-06-14 18:49:00,96.3,61.5,29.90,SE,143,5.0,24.0,32,0.00,,,0.00,meteohub,2013-06-14 23:49:00,
2013-06-14 18:54:00,96.3,60.6,29.90,SW,218,10.0,23.0,31,0.00,,,0.00,meteohub,2013-06-14 23:54:00,
2013-06-14 18:59:00,96.1,61.5,29.90,South,186,11.0,23.0,32,0.00,,,0.00,meteohub,2013-06-14 23:59:00,
2013-06-14 19:04:00,95.7,62.1,29.91,SW,214,13.0,23.0,33,0.00,,,0.00,meteohub,2013-06-15 00:04:00,
2013-06-14 19:09:00,95.2,62.4,29.91,SSE,152,16.0,25.0,34,0.00,,,0.00,meteohub,2013-06-15 00:09:00,
2013-06-14 19:14:00,94.8,63.0,29.91,SE,146,7.0,25.0,35,0.00,,,0.00,meteohub,2013-06-15 00:14:00,
2013-06-14 19:19:00,94.5,62.6,29.91,SW,232,10.0,23.0,35,0.00,,,0.00,meteohub,2013-06-15 00:19:00,
2013-06-14 19:24:00,94.1,63.1,29.91,South,179,8.0,23.0,36,0.00,,,0.00,meteohub,2013-06-15 00:24:00,
2013-06-14 19:29:00,93.6,63.3,29.91,SW,232,11.0,17.0,37,0.00,,,0.00,meteohub,2013-06-15 00:29:00,
2013-06-14 19:34:00,93.2,63.1,29.92,SW,214,5.0,17.0,37,0.00,,,0.00,meteohub,2013-06-15 00:34:00,
2013-06-14 19:39:00,93.0,63.7,29.92,South,183,12.0,18.0,38,0.00,,,0.00,meteohub,2013-06-15 00:39:00,
2013-06-14 19:44:00,93.0,64.4,29.92,South,176,7.0,18.0,39,0.00,,,0.00,meteohub,2013-06-15 00:44:00,
2013-06-14 19:49:00,92.8,64.9,29.92,SSW,203,10.0,18.0,40,0.00,,,0.00,meteohub,2013-06-15 00:49:00,
2013-06-14 19:54:00,92.3,65.8,29.92,SSW,200,6.0,17.0,42,0.00,,,0.00,meteohub,2013-06-15 00:54:00,
2013-06-14 19:59:00,91.9,66.9,29.93,SSW,198,14.0,17.0,44,0.00,,,0.00,meteohub,2013-06-15 00:59:00,
2013-06-14 20:04:00,91.6,66.6,29.93,SW,228,5.0,17.0,44,0.00,,,0.00,meteohub,2013-06-15 01:04:00,
2013-06-14 20:09:00,91.2,66.9,29.93,SSW,209,13.0,19.0,45,0.00,,,0.00,meteohub,2013-06-15 01:09:00,
2013-06-14 20:14:00,90.9,66.6,29.94,SW,226,7.0,20.0,45,0.00,,,0.00,meteohub,2013-06-15 01:14:00,
2013-06-14 20:19:00,90.7,67.1,29.94,SSW,195,5.0,20.0,46,0.00,,,0.00,meteohub,2013-06-15 01:19:00,
2013-06-14 20:24:00,90.3,66.7,29.94,WSW,242,9.0,16.0,46,0.00,,,0.00,meteohub,2013-06-15 01:24:00,
2013-06-14 20:29:00,90.0,67.1,29.94,South,183,7.0,17.0,47,0.00,,,0.00,meteohub,2013-06-15 01:29:00,
2013-06-14 20:34:00,89.4,67.1,29.94,SSE,155,7.0,17.0,48,0.00,,,0.00,meteohub,2013-06-15 01:34:00,
2013-06-14 20:39:00,89.1,67.5,29.94,South,170,7.0,14.0,49,0.00,,,0.00,meteohub,2013-06-15 01:39:00,
2013-06-14 20:44:00,88.5,67.5,29.94,SSE,155,8.0,14.0,50,0.00,,,0.00,meteohub,2013-06-15 01:44:00,
2013-06-14 20:49:00,88.3,67.3,29.94,SSW,200,6.0,14.0,50,0.00,,,0.00,meteohub,2013-06-15 01:49:00,
2013-06-14 20:54:00,88.0,67.6,29.94,South,186,5.0,12.0,51,0.00,,,0.00,meteohub,2013-06-15 01:54:00,
2013-06-14 20:59:00,87.6,67.8,29.94,SW,221,3.0,12.0,52,0.00,,,0.00,meteohub,2013-06-15 01:59:00,
2013-06-14 21:04:00,87.3,67.5,29.94,SW,236,8.0,12.0,52,0.00,,,0.00,meteohub,2013-06-15 02:04:00,
2013-06-14 21:09:00,87.1,67.8,29.94,SSW,203,5.0,12.0,53,0.00,,,0.00,meteohub,2013-06-15 02:09:00,
2013-06-14 21:14:00,86.7,68.0,29.94,SSE,155,5.0,12.0,54,0.00,,,0.00,meteohub,2013-06-15 02:14:00,
2013-06-14 21:19:00,86.4,67.8,29.94,SSE,150,9.0,12.0,54,0.00,,,0.00,meteohub,2013-06-15 02:19:00,
2013-06-14 21:24:00,86.2,67.6,29.95,SSW,205,6.0,12.0,54,0.00,,,0.00,meteohub,2013-06-15 02:24:00,
2013-06-14 21:29:00,85.8,67.8,29.95,SSW,211,7.0,11.0,55,0.00,,,0.00,meteohub,2013-06-15 02:29:00,
2013-06-14 21:34:00,85.6,67.6,29.95,SW,218,5.0,11.0,55,0.00,,,0.00,meteohub,2013-06-15 02:34:00,
2013-06-14 21:39:00,85.5,68.0,29.95,SW,217,7.0,12.0,56,0.00,,,0.00,meteohub,2013-06-15 02:39:00,
2013-06-14 21:44:00,85.3,68.4,29.95,SSE,152,10.0,12.0,57,0.00,,,0.00,meteohub,2013-06-15 02:44:00,
2013-06-14 21:49:00,84.9,68.0,29.95,SW,219,3.0,12.0,57,0.00,,,0.00,meteohub,2013-06-15 02:49:00,
2013-06-14 21:55:00,84.7,68.4,29.95,SSE,166,7.0,11.0,58,0.00,,,0.00,meteohub,2013-06-15 02:55:00,
2013-06-14 22:00:00,84.6,68.7,29.95,SSW,208,6.0,11.0,59,0.00,,,0.00,meteohub,2013-06-15 03:00:00,
2013-06-14 22:05:00,84.6,68.7,29.96,South,175,9.0,13.0,59,0.00,,,0.00,meteohub,2013-06-15 03:05:00,
2013-06-14 22:10:00,84.4,68.9,29.96,South,188,9.0,13.0,60,0.00,,,0.00,meteohub,2013-06-15 03:10:00,
2013-06-14 22:15:00,84.4,68.9,29.96,WSW,242,6.0,13.0,60,0.00,,,0.00,meteohub,2013-06-15 03:15:00,
2013-06-14 22:20:00,84.0,68.7,29.96,SSE,160,4.0,12.0,60,0.00,,,0.00,meteohub,2013-06-15 03:20:00,
2013-06-14 22:25:00,83.8,68.5,29.96,SSW,201,8.0,12.0,60,0.00,,,0.00,meteohub,2013-06-15 03:25:00,
2013-06-14 22:30:00,83.7,68.7,29.96,SSW,203,7.0,13.0,61,0.00,,,0.00,meteohub,2013-06-15 03:30:00,
2013-06-14 22:35:00,83.5,68.5,29.97,South,183,5.0,13.0,61,0.00,,,0.00,meteohub,2013-06-15 03:35:00,
2013-06-14 22:40:00,83.5,68.5,29.97,SSE,160,3.0,13.0,61,0.00,,,0.00,meteohub,2013-06-15 03:40:00,
2013-06-14 22:45:00,83.5,68.5,29.97,SE,136,5.0,13.0,61,0.00,,,0.00,meteohub,2013-06-15 03:45:00,
2013-06-14 22:50:00,83.1,68.4,29.97,SSE,168,8.0,13.0,61,0.00,,,0.00,meteohub,2013-06-15 03:50:00,
2013-06-14 22:55:00,83.1,68.4,29.98,SSW,207,6.0,10.0,61,0.00,,,0.00,meteohub,2013-06-15 03:55:00,
2013-06-14 23:00:00,83.1,68.4,29.98,SSW,207,5.0,12.0,61,0.00,,,0.00,meteohub,2013-06-15 04:00:00,
2013-06-14 23:01:00,83.1,68.4,29.98,SSW,200,7.0,12.0,61,0.00,,,0.00,meteohub,2013-06-15 04:01:00,
2013-06-14 23:06:00,82.9,68.2,29.97,SSW,208,4.0,12.0,61,0.00,,,0.00,meteohub,2013-06-15 04:06:00,
2013-06-14 23:11:00,82.9,68.2,29.97,South,172,9.0,11.0,61,0.00,,,0.00,meteohub,2013-06-15 04:11:00,
2013-06-14 23:16:00,82.9,68.2,29.98,South,180,5.0,11.0,61,0.00,,,0.00,meteohub,2013-06-15 04:16:00,
2013-06-14 23:21:00,82.9,68.2,29.98,WSW,246,6.0,13.0,61,0.00,,,0.00,meteohub,2013-06-15 04:21:00,
2013-06-14 23:26:00,82.9,68.2,29.97,SW,214,10.0,13.0,61,0.00,,,0.00,meteohub,2013-06-15 04:26:00,
2013-06-14 23:31:00,82.8,67.5,29.97,South,174,5.0,13.0,60,0.00,,,0.00,meteohub,2013-06-15 04:31:00,
2013-06-14 23:36:00,82.8,67.5,29.98,South,186,7.0,11.0,60,0.00,,,0.00,meteohub,2013-06-15 04:36:00,
2013-06-14 23:41:00,82.6,67.3,29.97,SW,214,6.0,13.0,60,0.00,,,0.00,meteohub,2013-06-15 04:41:00,
2013-06-14 23:46:00,82.4,67.6,29.97,SSE,160,6.0,13.0,61,0.00,,,0.00,meteohub,2013-06-15 04:46:00,
2013-06-14 23:51:00,82.2,67.5,29.98,SSW,197,4.0,13.0,61,0.00,,,0.00,meteohub,2013-06-15 04:51:00,
2013-06-14 23:56:00,82.2,67.5,29.98,SSW,198,4.0,13.0,61,0.00,,,0.00,meteohub,2013-06-15 04:56:00,